Location: ??????
(55.6130°N, 37.7882°E)
Time: 18:33:35
(UTC+00:00)

ATLAS 2AS CENTAUR R/B - Pass Details

Date: 14 April 2024
Orbit: 1016 x 1195 km, 63.7° (Epoch: 27 May)

Event Time Altitude Azimuth Distance (km) Brightness Sun altitude
Rises 01:10:20 0° 190° (S) 4,056 5.3 -10.4°
Reaches altitude 10° 01:13:19 10° 182° (S) 3,079 4.8 -10.0°
Maximum altitude 01:19:51 36° 120° (ESE) 1,737 4.1 -9.3°
Drops below altitude 10° 01:26:10 10° 57° (ENE) 2,986 6.8 -8.5°
Sets 01:29:01 0° 49° (NE) 3,920 7.7 -8.2°
